When you browse on this site, cookies collect data to enhance your experience and personalize the content and advertising you see.
Visit our Privacy Policy to learn more. By continuing to use the site, you agree to this use of cookies and data.
  • In Latvia
  • List of Countries
  • For 7 days
  • Water Temperature
  • Weather Map
  • Weather Widgets
  • user-avatar
    Login

    Hourly Weather Gjirokaster

    Today, 7 June, Sunday

    Time Temperature Precipitation Wind Pressure Humidity
    00:00 +9°C° 0 mm 1 mps 647 mmHg 90%
    01:00 +8°C° 0 mm 1 mps 647 mmHg 90%
    02:00 +8°C° 0 mm 1 mps 647 mmHg 89%
    03:00 +8°C° 0 mm 1 mps 647 mmHg 89%
    04:00 +8°C° 0 mm 1 mps 647 mmHg 89%
    05:00 +9°C° 0 mm 1 mps 647 mmHg 84%
    06:00 +10°C° 0 mm 0 mps 648 mmHg 79%
    07:00 +12°C° 0 mm 0 mps 649 mmHg 75%
    08:00 +14°C° 0 mm 1 mps 649 mmHg 70%
    09:00 +15°C° 0 mm 1 mps 650 mmHg 66%
    10:00 +16°C° 0 mm 1 mps 650 mmHg 61%
    11:00 +17°C° 0 mm 2 mps 650 mmHg 61%
    12:00 +17°C° 0 mm 2 mps 650 mmHg 61%
    13:00 +17°C° 0 mm 2 mps 650 mmHg 61%
    14:00 +17°C° 0.1 mm 2 mps 650 mmHg 63%
    15:00 +16°C° 0.1 mm 2 mps 650 mmHg 65%
    16:00 +16°C° 0.1 mm 2 mps 650 mmHg 67%
    17:00 +15°C° 0 mm 1 mps 649 mmHg 73%
    18:00 +13°C° 0 mm 1 mps 649 mmHg 78%
    19:00 +12°C° 0 mm 1 mps 649 mmHg 84%
    20:00 +12°C° 0 mm 1 mps 649 mmHg 85%
    21:00 +11°C° 0 mm 1 mps 649 mmHg 86%
    22:00 +11°C° 0 mm 1 mps 649 mmHg 88%
    23:00 +10°C° 0 mm 1 mps 648 mmHg 87%

    Tomorrow, 8 June, Monday

    Time Temperature Precipitation Wind Pressure Humidity
    00:00 +10°C° 0 mm 1 mps 648 mmHg 87%
    01:00 +10°C° 0 mm 1 mps 648 mmHg 86%
    02:00 +10°C° 0 mm 1 mps 648 mmHg 87%
    03:00 +10°C° 0 mm 1 mps 648 mmHg 87%
    04:00 +9°C° 0 mm 1 mps 648 mmHg 88%
    05:00 +11°C° 0 mm 1 mps 648 mmHg 84%
    06:00 +12°C° 0 mm 1 mps 649 mmHg 80%
    07:00 +13°C° 0 mm 1 mps 649 mmHg 77%
    08:00 +15°C° 0 mm 1 mps 649 mmHg 70%
    09:00 +16°C° 0 mm 2 mps 650 mmHg 63%
    10:00 +18°C° 0 mm 2 mps 650 mmHg 57%
    11:00 +19°C° 0 mm 2 mps 650 mmHg 54%
    12:00 +19°C° 0 mm 2 mps 650 mmHg 52%
    13:00 +20°C° 0 mm 2 mps 650 mmHg 49%
    14:00 +19°C° 0 mm 2 mps 650 mmHg 51%
    15:00 +19°C° 0 mm 2 mps 650 mmHg 53%
    16:00 +19°C° 0 mm 2 mps 649 mmHg 54%
    17:00 +17°C° 0 mm 2 mps 649 mmHg 61%
    18:00 +15°C° 0 mm 1 mps 649 mmHg 67%
    19:00 +14°C° 0 mm 1 mps 648 mmHg 74%
    20:00 +14°C° 0 mm 1 mps 648 mmHg 72%
    21:00 +13°C° 0 mm 1 mps 649 mmHg 71%
    22:00 +13°C° 0 mm 1 mps 649 mmHg 69%
    23:00 +13°C° 0 mm 1 mps 648 mmHg 70%

    Day after tomorrow, 9 June, Tuesday

    Time Temperature Precipitation Wind Pressure Humidity
    00:00 +12°C° 0 mm 1 mps 648 mmHg 71%
    01:00 +12°C° 0 mm 1 mps 648 mmHg 72%
    02:00 +12°C° 0 mm 1 mps 648 mmHg 71%
    03:00 +12°C° 0 mm 1 mps 648 mmHg 71%
    04:00 +12°C° 0 mm 1 mps 648 mmHg 70%
    05:00 +13°C° 0 mm 1 mps 648 mmHg 66%
    06:00 +15°C° 0 mm 1 mps 649 mmHg 62%
    07:00 +18°C° 0 mm 1 mps 649 mmHg 59%
    08:00 +19°C° 0 mm 1 mps 650 mmHg 54%
    09:00 +20°C° 0 mm 1 mps 650 mmHg 49%
    10:00 +20°C° 0 mm 2 mps 651 mmHg 45%
    11:00 +20°C° 0 mm 2 mps 650 mmHg 45%
    12:00 +21°C° 0 mm 2 mps 650 mmHg 44%
    13:00 +21°C° 0 mm 2 mps 650 mmHg 44%
    14:00 +20°C° 0 mm 2 mps 650 mmHg 47%
    15:00 +20°C° 0 mm 2 mps 650 mmHg 49%
    16:00 +19°C° 0 mm 2 mps 650 mmHg 52%
    17:00 +18°C° 0 mm 1 mps 650 mmHg 59%
    18:00 +16°C° 0 mm 1 mps 649 mmHg 66%
    19:00 +13°C° 0 mm 0 mps 649 mmHg 74%
    20:00 +12°C° 0 mm 0 mps 649 mmHg 74%
    21:00 +12°C° 0 mm 0 mps 649 mmHg 75%
    22:00 +12°C° 0 mm 1 mps 649 mmHg 76%
    23:00 +11°C° 0 mm 0 mps 649 mmHg 76%

    10 June, Wednesday

    Time Temperature Precipitation Wind Pressure Humidity
    00:00 +10°C° 0 mm 0 mps 649 mmHg 76%
    01:00 +10°C° 0 mm 0 mps 648 mmHg 76%
    02:00 +11°C° 0 mm 1 mps 648 mmHg 76%
    03:00 +11°C° 0 mm 1 mps 648 mmHg 77%
    04:00 +10°C° 0 mm 1 mps 648 mmHg 77%
    05:00 +12°C° 0 mm 1 mps 649 mmHg 72%
    06:00 +14°C° 0 mm 1 mps 649 mmHg 67%
    07:00 +16°C° 0 mm 1 mps 650 mmHg 62%
    08:00 +18°C° 0 mm 1 mps 650 mmHg 57%
    09:00 +18°C° 0 mm 2 mps 651 mmHg 53%
    10:00 +19°C° 0 mm 2 mps 651 mmHg 49%
    11:00 +19°C° 0 mm 2 mps 651 mmHg 49%
    12:00 +19°C° 0 mm 2 mps 651 mmHg 48%
    13:00 +20°C° 0 mm 2 mps 651 mmHg 48%
    14:00 +19°C° 0.1 mm 2 mps 650 mmHg 51%
    15:00 +19°C° 0.1 mm 2 mps 650 mmHg 53%
    16:00 +18°C° 0.1 mm 2 mps 650 mmHg 56%
    17:00 +16°C° 0.1 mm 2 mps 649 mmHg 65%
    18:00 +15°C° 0.1 mm 1 mps 649 mmHg 73%
    19:00 +13°C° 0.1 mm 1 mps 648 mmHg 82%
    20:00 +12°C° 0.1 mm 1 mps 648 mmHg 83%
    21:00 +11°C° 0.1 mm 0 mps 648 mmHg 84%
    22:00 +10°C° 0.1 mm 0 mps 648 mmHg 86%
    23:00 +10°C° 0 mm 0 mps 648 mmHg 86%

    11 June, Thursday

    Time Temperature Precipitation Wind Pressure Humidity
    00:00 +9°C° 0 mm 0 mps 648 mmHg 86%
    01:00 +9°C° 0 mm 0 mps 648 mmHg 86%
    02:00 +9°C° 0 mm 0 mps 647 mmHg 86%
    03:00 +9°C° 0 mm 0 mps 647 mmHg 86%
    04:00 +8°C° 0 mm 0 mps 647 mmHg 86%
    05:00 +10°C° 0 mm 0 mps 647 mmHg 81%
    06:00 +12°C° 0 mm 0 mps 648 mmHg 75%
    07:00 +13°C° 0 mm 0 mps 649 mmHg 70%
    08:00 +15°C° 0 mm 1 mps 649 mmHg 65%
    09:00 +16°C° 0 mm 1 mps 649 mmHg 60%
    10:00 +17°C° 0 mm 2 mps 649 mmHg 55%
    11:00 +17°C° 0.1 mm 2 mps 649 mmHg 55%
    12:00 +17°C° 0.1 mm 2 mps 649 mmHg 55%
    13:00 +18°C° 0.1 mm 3 mps 649 mmHg 55%
    14:00 +17°C° 0.4 mm 3 mps 649 mmHg 57%
    15:00 +17°C° 0.4 mm 3 mps 648 mmHg 59%
    16:00 +16°C° 0.4 mm 3 mps 648 mmHg 61%
    17:00 +14°C° 0.1 mm 3 mps 648 mmHg 66%
    18:00 +13°C° 0.1 mm 2 mps 647 mmHg 71%
    19:00 +12°C° 0.1 mm 2 mps 647 mmHg 76%
    20:00 +12°C° 0 mm 2 mps 647 mmHg 77%
    21:00 +10°C° 0 mm 2 mps 647 mmHg 77%
    22:00 +10°C° 0 mm 1 mps 647 mmHg 78%
    23:00 +10°C° 0 mm 1 mps 647 mmHg 78%

    12 June, Friday

    Time Temperature Precipitation Wind Pressure Humidity
    00:00 +10°C° 0 mm 1 mps 647 mmHg 77%
    01:00 +10°C° 0 mm 1 mps 646 mmHg 77%
    02:00 +9°C° 0 mm 1 mps 646 mmHg 77%
    03:00 +9°C° 0 mm 1 mps 646 mmHg 78%
    04:00 +8°C° 0 mm 2 mps 646 mmHg 78%
    05:00 +9°C° 0 mm 2 mps 646 mmHg 74%
    06:00 +12°C° 0 mm 2 mps 647 mmHg 70%
    07:00 +13°C° 0 mm 2 mps 647 mmHg 65%
    08:00 +14°C° 0 mm 2 mps 648 mmHg 61%
    09:00 +16°C° 0 mm 3 mps 648 mmHg 56%
    10:00 +17°C° 0 mm 3 mps 648 mmHg 51%
    11:00 +17°C° 0 mm 4 mps 649 mmHg 51%
    12:00 +18°C° 0 mm 4 mps 649 mmHg 51%
    13:00 +18°C° 0 mm 4 mps 649 mmHg 51%
    14:00 +18°C° 0 mm 4 mps 648 mmHg 54%
    15:00 +17°C° 0 mm 4 mps 648 mmHg 56%
    16:00 +17°C° 0 mm 4 mps 648 mmHg 59%
    17:00 +14°C° 0 mm 4 mps 648 mmHg 66%
    18:00 +13°C° 0 mm 3 mps 647 mmHg 72%
    19:00 +11°C° 0 mm 3 mps 647 mmHg 79%
    20:00 +10°C° 0 mm 3 mps 647 mmHg 80%
    21:00 +10°C° 0 mm 3 mps 647 mmHg 82%
    22:00 +9°C° 0 mm 2 mps 647 mmHg 83%
    23:00 +8°C° 0 mm 2 mps 647 mmHg 82%
    Show more